#timestamp,LO_Frequency,Hit,StdDev 
1595941215.6,286046996.7,P
1595941235.4,286046997.1,N
1595941255.3,286046997.4,N
1595941275.1,286046999.6,N
1595941295.9,286046999.6,N
1595941315.7,286046996.6,N
1595941335.5,286046997.4,N
1595941355.4,286046997.5,N
1595941375.2,286046997.5,N
1595941395.0,286046997.8,N
1595941395.9,286046997.8,N
1595941415.8,286046997.5,N
1595941435.6,286046994.9,Y
1595941455.5,286046998.8,P
1595941475.3,286046999.0,N
1595941495.1,286046998.9,N
1595941515.9,286046998.9,N
1595941535.7,286047002.2,Y
1595941555.6,286047000.1,P
1595941575.4,286047000.6,N
1595941595.2,286047001.4,N
1595941615.1,286047001.4,N
1595941616.0,286047001.4,N
1595941635.8,286047001.6,N
1595941655.7,286047003.4,Y
1595941675.5,286047001.7,P
1595941695.3,286047004.1,P
1595941715.2,286047004.1,N
1595941735.0,286047003.0,N
1595941735.9,286047003.0,N
1595941755.8,286047003.5,N
1595941775.6,286047001.6,N
1595941795.4,286047002.0,N
1595941815.3,286047002.1,N
1595941835.1,286047001.5,N
1595941855.8,286047003.1,N
1595941875.7,286047003.1,N
1595941895.5,286047003.4,Y
1595941915.4,286047001.5,P
1595941935.2,286047002.7,P
1595941955.0,286047002.6,P
1595941955.9,286047002.6,Y
1595941975.8,286046999.3,P
1595941995.6,286046998.9,N
1595942015.5,286047000.3,N
1595942035.3,286046998.5,N
1595942055.1,286046999.0,N
1595942075.9,286046998.7,N
1595942095.7,286047000.9,N
1595942115.5,286047000.4,N
1595942135.4,286046998.3,N
1595942155.2,286046998.6,N
1595942175.1,286046999.3,N
1595942176.0,286046999.3,N
1595942195.8,286046999.6,N
1595942215.6,286046997.2,N
1595942235.5,286046997.2,N
1595942255.3,286046996.9,N
1595942275.2,286046996.7,N
1595942295.9,286047000.7,N
1595942315.7,286046999.3,N
1595942335.6,286046999.1,N
1595942355.4,286046998.2,N
1595942375.2,286046999.9,N
1595942395.1,286047001.2,N
1595942396.0,286047001.2,N
1595942415.8,286046998.5,N
1595942435.7,286046998.8,N
1595942455.5,286047000.7,N
1595942475.3,286046998.8,N
1595942495.2,286046996.9,N
1595942515.0,286046999.1,N
1595942515.9,286046999.1,N
1595942535.8,286046999.6,N
1595942555.6,286046997.3,N
1595942575.4,286046999.2,N
1595942595.3,286046999.4,N
1595942615.1,286046998.4,N
1595942635.9,286046999.0,N
1595942655.7,286046996.5,N
1595942675.5,286046999.5,N
1595942695.4,286046998.5,N
1595942715.2,286046998.5,N
1595942735.0,286047000.8,N
1595942735.9,286047000.8,N
1595942755.8,286046998.8,N
1595942775.6,286046998.5,N
1595942795.5,286046998.7,N
1595942815.3,286047000.5,N
1595942835.1,286046998.5,N
1595942855.9,286046998.1,N
1595942875.7,286046998.2,N
1595942895.6,286046998.3,N
1595942915.4,286047000.8,N
1595942935.2,286047001.1,N
1595942955.1,286047000.7,N
1595942956.0,286047000.7,N
1595942975.8,286047002.3,N
1595942995.6,286047000.4,N
1595943015.5,286046998.2,N
1595943035.3,286046998.3,N
1595943055.2,286046998.4,N
1595943075.0,286046999.3,N
1595943075.9,286046999.3,N
1595943095.7,286046996.8,N
1595943115.6,286046997.0,N
1595943135.4,286046996.9,N
1595943155.3,286046998.4,N
1595943175.1,286047000.0,N
1595943176.0,286047000.0,N
1595943195.8,286047001.0,N
1595943215.7,286047000.3,N
1595943235.5,286047000.7,N
1595943255.4,286046998.7,N
1595943275.2,286046998.4,N
1595943295.0,286046998.3,N
1595943295.9,286046998.3,N
1595943315.8,286046998.1,N
1595943335.6,286047000.8,N
1595943355.4,286046998.1,N
1595943375.3,286047000.2,N
1595943395.1,286047001.0,N
1595943415.9,286047000.2,N
1595943435.7,286046999.9,N
1595943455.5,286047000.1,N
1595943475.4,286047002.7,N
1595943495.2,286046999.8,N
1595943515.0,286046999.8,N
1595943516.0,286046999.8,N
1595943535.8,286047000.8,N
1595943555.6,286047000.7,N
1595943575.5,286046998.2,N
1595943595.3,286046999.0,N
1595943615.1,286046998.8,N
1595943635.9,286046998.9,N
1595943655.7,286046999.0,N
1595943675.6,286046999.6,N
1595943695.4,286046996.7,Y
1595943715.2,286046997.2,P
1595943735.1,286046997.3,N
1595943736.0,286046997.3,N
1595943755.8,286046997.0,N
1595943775.7,286046999.1,N
1595943795.5,286046998.5,N
1595943815.3,286047000.0,N
1595943835.2,286046998.2,N
1595943855.0,286046999.9,N
1595943855.9,286046999.9,N
1595943875.8,286046999.8,N
1595943895.6,286047000.6,N
1595943915.4,286047002.3,N
1595943935.3,286047000.1,N
1595943955.1,286047000.4,N
1595943975.9,286047002.7,N
1595943995.7,286047000.7,N
1595944015.5,286046998.3,N
1595944035.4,286046998.2,N
1595944055.2,286046998.4,N
1595944075.1,286046998.1,N
1595944076.0,286046998.1,N
1595944095.8,286046998.2,N
1595944115.6,286046998.6,N
1595944135.5,286046998.7,N
1595944155.3,286046999.5,N
1595944175.2,286046996.8,N
1595944195.9,286046997.6,N
1595944215.7,286046994.9,Y
1595944235.6,286046999.2,P
1595944255.4,286046999.1,P
1595944275.3,286046996.9,P
1595944295.1,286046996.8,Y
1595944315.8,286046999.3,P
1595944335.7,286046996.5,P
1595944355.5,286046996.7,N
1595944375.4,286046996.6,N
1595944395.2,286046996.7,N
1595944415.0,286046996.9,N
1595944415.9,286046996.9,Y
1595944435.8,286046998.1,P
1595944455.6,286046998.6,P
1595944475.5,286046999.5,N
1595944495.3,286046996.9,Y
1595944515.2,286047000.6,P
1595944535.9,286047000.7,N
1595944555.7,286046998.6,N
1595944575.6,286046998.9,N
1595944595.4,286047000.7,N
1595944615.2,286047001.1,N
1595944635.1,286047000.9,N
1595944636.0,286047000.9,N
1595944655.8,286046999.3,N
1595944675.7,286046998.9,N
1595944695.5,286046998.4,N
1595944715.3,286046996.6,Y
1595944735.2,286046999.5,P
1595944755.0,286046999.5,P
1595944755.9,286046999.5,P
1595944775.8,286046996.6,Y
1595944795.6,286046996.9,P
